Location: Gammelsbach
(49.5261°N, 8.9630°E)
Time: 21:33:15
(UTC+00:00)

Cosmos 407 Rocket - Pass Details

Date: 17 June 2025
Orbit: 740 x 782 km, 74.0° (Epoch: 16 July)

Event Time Altitude Azimuth Distance (km) Brightness Sun altitude
Exits shadow 22:33:47 11° 221° (SW) 2,203 5.5 -16.2°
Maximum altitude 22:38:38 55° 298° (WNW) 895 4.0 -16.3°
Drops below altitude 10° 22:43:40 10° 17° (NNE) 2,261 6.9 -16.5°
Sets 22:46:05 0° 22° (NNE) 3,189 7.8 -16.5°
